Beaufort, NC

8:50 AM EDT on May 27, 2018 (GMT -0400)
Smith

Weather History for KMRH - November, 2012

Change the Weather History Date:

Friday, November 30, 2012

  Actual Average Record
Temperature  
Mean Temperature 47 °F -  
Max Temperature 61 °F 63 °F 76 °F (1970)
Min Temperature 33 °F 40 °F 26 °F (1959)
Degree Days  
Heating Degree Days 18    
Moisture  
Dew Point 37 °F    
Average Humidity 80    
Maximum Humidity 100    
Minimum Humidity 36    
Precipitation  
Precipitation 0.00 in - - ()
Sea Level Pressure  
Sea Level Pressure 30.37 in    
Wind  
Wind Speed 1 mph (East)    
Max Wind Speed 7 mph    
Max Gust Speed -    
Visibility 8 miles    
Events      
Averages and records for this station are not official NWS values.
T = Trace of Precipitation, MM = Missing Value Source: NWS Daily Summary

Daily Weather History Graph

Daily Weather History Graph

Search for Another Location

Airport or City:

Astronomy

Nov. 30, 2012 Rise Set
Actual Time 6:55 AM EST 4:55 PM EST
Civil Twilight 6:27 AM EST 5:23 PM EST
Nautical Twilight 5:56 AM EST 5:54 PM EST
Astronomical Twilight 5:25 AM EST 6:24 PM EST
Moon 6:48 PM EST (11/30) 8:25 AM EST (11/30)
Length of Visible Light 10h 55m
Length of Day
10h 00m
Waning Gibbous, 96% of the Moon is Illuminated
Nov 30
Waning Gibbous
Dec 6
Last Quarter
Dec 13
New
Dec 20
First Quarter
Dec 28
Full

Hourly Weather History & Observations

Time (EST) Temp. Dew Point Humidity Pressure Visibility Wind Dir Wind Speed Gust Speed Precip Events Conditions
12:56 AM 33.1 °F 33.1 °F 100% 30.41 in 6.0 mi Calm Calm - N/A   Clear
1:56 AM 34.0 °F 34.0 °F 100% 30.40 in 6.0 mi Calm Calm - N/A   Clear
2:56 AM 34.0 °F 33.1 °F 96% 30.40 in 8.0 mi Calm Calm - N/A   Clear
3:56 AM 34.0 °F 33.1 °F 96% 30.39 in 9.0 mi Calm Calm - N/A   Clear
4:56 AM 33.1 °F 32.0 °F 96% 30.39 in 9.0 mi Calm Calm - N/A   Clear
5:56 AM 34.0 °F 33.1 °F 96% 30.40 in 10.0 mi Calm Calm - N/A   Clear
6:56 AM 33.1 °F 32.0 °F 96% 30.41 in 9.0 mi Calm Calm - N/A   Clear
7:56 AM 36.0 °F 35.1 °F 97% 30.41 in 8.0 mi Calm Calm - N/A   Clear
8:56 AM 48.9 °F 39.0 °F 69% 30.42 in 10.0 mi Calm Calm - N/A   Clear
9:56 AM 54.0 °F 36.0 °F 51% 30.43 in 10.0 mi NNE 4.6 mph - N/A   Mostly Cloudy
10:56 AM 57.0 °F 35.1 °F 44% 30.42 in 10.0 mi NNE 6.9 mph - N/A   Mostly Cloudy
11:56 AM 59.0 °F 36.0 °F 42% 30.39 in 10.0 mi Calm Calm - N/A   Clear
12:56 PM 61.0 °F 34.0 °F 36% 30.36 in 10.0 mi Calm Calm - N/A   Clear
1:56 PM 60.1 °F 37.9 °F 44% 30.34 in 10.0 mi SE 3.5 mph - N/A   Clear
2:56 PM 60.1 °F 39.0 °F 46% 30.33 in 10.0 mi ESE 4.6 mph - N/A   Clear
3:56 PM 55.0 °F 41.0 °F 59% 30.33 in 10.0 mi ESE 4.6 mph - N/A   Clear
4:56 PM 51.1 °F 42.1 °F 71% 30.34 in 10.0 mi East 4.6 mph - N/A   Clear
5:56 PM 44.1 °F 39.9 °F 85% 30.34 in 9.0 mi Calm Calm - N/A   Clear
6:56 PM 43.0 °F 41.0 °F 93% 30.35 in 8.0 mi Calm Calm - N/A   Clear
7:56 PM 42.1 °F 39.9 °F 92% 30.35 in 7.0 mi Calm Calm - N/A   Clear
8:56 PM 39.0 °F 37.9 °F 96% 30.35 in 7.0 mi Calm Calm - N/A   Clear
10:24 PM 37.4 °F 37.4 °F 100% 30.35 in 2.5 mi Calm Calm - N/A   Clear
10:31 PM 37.4 °F 37.4 °F 100% 30.35 in 6.0 mi Calm Calm - N/A   Clear
10:56 PM 39.0 °F 37.9 °F 96% 30.35 in 5.0 mi Calm Calm - N/A   Clear
11:56 PM 37.9 °F 37.0 °F 97% 30.35 in 6.0 mi Calm Calm - N/A   Clear